Location: Newark
(33.6333°S, 78.8500°W)
Time: 22:42:13
(UTC+00:00)

Transit 2A - All Passes

Search period start: 18 September 2019 00:00
Search period end: 28 September 2019 00:00
Orbit: 598 x 960 km, 66.7° (Epoch: 17 September)

Date Brightness Start Highest point End Pass type
(mag) Time Alt. Az. Time Alt. Az. Time Alt. Az.
18 Sep - 04:18:00 10° S 04:22:44 22° SE 04:27:32 10° ENE visible
18 Sep - 06:00:11 10° SSW 06:06:22 62° WNW 06:12:37 10° N night (unlit)
18 Sep - 18:54:28 10° NNE 18:58:18 26° ENE 19:02:28 10° SE daylight
18 Sep - 20:37:13 10° WNW 20:41:20 29° SW 20:45:50 10° S daylight
19 Sep - 03:44:39 10° SSE 03:48:19 16° SE 03:52:02 10° E visible
19 Sep - 05:25:59 10° SSW 05:32:17 88° WNW 05:38:40 10° NNE night (unlit)
19 Sep - 07:12:52 10° W 07:14:43 11° WNW 07:16:33 10° WNW night (unlit)
19 Sep - 18:21:33 10° NE 18:24:27 16° ENE 18:27:29 10° ESE daylight
19 Sep - 20:02:35 10° NW 20:07:03 43° WSW 20:12:02 10° SSE daylight
20 Sep - 03:12:03 10° SSE 03:13:50 11° SE 03:15:36 10° ESE visible
20 Sep - 04:51:55 10° SSW 04:58:09 66° ESE 05:04:29 10° NE visible
20 Sep - 06:36:48 10° WSW 06:40:51 18° WNW 06:44:55 10° NW night (unlit)
20 Sep - 19:28:14 10° NW 19:32:52 68° WSW 19:38:04 10° SSE daylight
21 Sep - 04:17:58 10° SSW 04:23:58 46° ESE 04:30:03 10° NE visible
21 Sep - 06:01:49 10° SW 06:06:57 27° WNW 06:12:06 10° NNW night (unlit)
21 Sep - 18:54:08 10° NNW 18:58:46 76° ENE 19:03:58 10° SSE daylight
21 Sep - 20:40:33 10° WSW 20:42:44 13° SW 20:45:00 10° SSW daylight
22 Sep - 03:44:07 10° S 03:49:43 33° SE 03:55:22 10° ENE visible
22 Sep - 05:27:12 10° SW 05:32:59 39° WNW 05:38:47 10° N night (unlit)
22 Sep - 18:20:18 10° N 18:24:45 47° ENE 18:29:41 10° SE daylight
22 Sep - 20:04:53 10° W 20:08:17 18° SW 20:11:55 10° S daylight
23 Sep - 03:10:27 10° S 03:15:24 24° SE 03:20:24 10° ENE visible
23 Sep - 04:52:49 10° SW 04:58:58 57° WNW 05:05:10 10° N visible
23 Sep - 17:46:47 10° NNE 17:50:48 29° ENE 17:55:12 10° SE daylight
23 Sep - 19:29:51 10° WNW 19:33:55 27° SW 19:38:22 10° S daylight
24 Sep - 02:37:01 10° S 02:41:00 17° SE 02:45:01 10° E visible
24 Sep - 04:18:34 10° SSW 04:24:54 82° WNW 04:31:16 10° NNE visible
24 Sep - 06:06:53 10° W 06:07:16 10° W 06:07:38 10° WNW night (unlit)
24 Sep - 17:13:42 10° NNE 17:16:56 18° ENE 17:20:21 10° ESE daylight
24 Sep - 18:55:10 10° NW 18:59:38 40° WSW 19:04:36 10° SSE daylight
25 Sep - 02:04:06 10° SSE 02:06:31 12° SE 02:08:56 10° ESE visible
25 Sep - 03:44:28 10° SSW 03:50:47 71° ESE 03:57:08 10° NNE visible
25 Sep - 05:29:41 10° WSW 05:33:25 16° WNW 05:37:08 10° NW night (unlit)
25 Sep - 16:41:45 10° ENE 16:43:06 11° E 16:44:29 10° E daylight
25 Sep - 18:20:45 10° NW 18:25:26 62° WSW 18:30:40 10° SSE daylight
26 Sep - 03:10:30 10° SSW 03:16:36 50° ESE 03:22:45 10° NE visible
26 Sep - 04:54:33 10° SW 04:59:31 24° WNW 05:04:28 10° NNW visible
26 Sep - 17:46:36 10° NNW 17:51:18 84° ENE 17:56:35 10° SSE daylight
26 Sep - 19:33:28 10° WSW 19:35:22 12° SW 19:37:19 10° SSW daylight
27 Sep - 02:36:38 10° S 02:42:22 35° ESE 02:48:08 10° ENE visible
27 Sep - 04:19:52 10° SW 04:25:34 36° WNW 04:31:15 10° N visible
27 Sep - 17:12:43 10° N 17:17:16 52° ENE 17:22:20 10° SE daylight
27 Sep - 18:57:38 10° W 19:00:54 17° SW 19:04:24 10° S daylight
